Tracking 28794 objects as of 19-Apr-2024
HD Live streaming from Space Station
objects crossing your sky now

JCSAT 8

Track JCSAT 8 now!
JCSAT 8 is classified as:


NORAD ID: 27399
Int'l Code: 2002-015A
Perigee: 36,119.0 km
Apogee: 36,174.3 km
Inclination: 6.3 °
Period: 1,454.2 minutes
Semi major axis: 42517 km
RCS: 25.1486 m2 (large)
Launch date: March 29, 2002
Source: Japan (JPN)
Launch site: FRENCH GUIANA (FRGUI)

16 C-band, 16 Ku-band; coverage to Japan< East Asia, Australia and Hawaii.
Your satellite tracking list
Your tracking list is empty




NASA's NSSDC Master Catalog

Two Line Element Set (TLE):
1 27399U 02015A   24110.59995830  .00000073  00000-0  00000-0 0  9994
2 27399   6.3382  72.7218 0006500  31.6276 194.2916  0.99026069 80840
Source of the keplerian elements: AFSPC